HI3LT-16 Weather Reports


time (UTC)temp
C
wind
direction
speed
KPH
gust
KPH
rain 1hr
cm
rain 24hr
cm
rain mn
cm
humidity
%
barometer
mb
20260507125230 22 120 6.4 0.0 0.00 0.00 0.00 94 1017.0
20260507124229 22 120 6.4 0.0 0.00 0.00 0.00 94 1017.0
20260507123228 21 120 6.4 0.0 0.00 0.00 0.00 95 1017.0
20260507122226 21 120 6.4 0.0 0.00 0.00 0.00 95 1016.0
20260507121225 21 120 6.4 0.0 0.00 0.00 0.00 95 1016.0
20260507120224 21 100 6.4 0.0 0.00 0.00 0.00 95 1016.0
20260507115223 21 100 6.4 0.0 0.00 0.00 0.00 95 1016.0
20260507114221 21 100 6.4 0.0 0.00 0.00 0.00 95 1016.0
20260507113220 21 100 6.4 0.0 0.00 0.00 0.00 95 1016.0
20260507112219 21 100 6.4 0.0 0.00 0.00 0.00 95 1016.0
20260507111217 21 100 6.4 0.0 0.00 0.00 0.00 95 1016.0
20260507110216 21 110 6.4 0.0 0.00 0.00 0.00 95 1016.0
20260507105215 21 110 6.4 0.0 0.00 0.00 0.00 95 1016.0
20260507104214 21 110 6.4 0.0 0.00 0.00 0.00 95 1016.0
20260507103212 21 110 6.4 0.0 0.00 0.00 0.00 95 1016.0
20260507102211 21 110 6.4 0.0 0.00 0.00 0.00 95 1016.0
20260507101210 21 110 6.4 0.0 0.00 0.00 0.00 95 1016.0
20260507100207 21 110 6.4 0.0 0.00 0.00 0.00 95 1016.0
20260507095206 21 110 6.4 0.0 0.00 0.00 0.00 95 1016.0
20260507094204 21 110 6.4 0.0 0.00 0.00 0.00 95 1016.0
20260507093202 21 110 6.4 0.0 0.00 0.00 0.00 95 1016.0
20260507092201 21 110 6.4 0.0 0.00 0.00 0.00 95 1015.0
20260507091159 21 110 6.4 0.0 0.00 0.00 0.00 95 1015.0
20260507090157 21 110 6.4 0.0 0.00 0.00 0.00 95 1015.0
20260507085156 21 110 6.4 0.0 0.00 0.00 0.00 95 1015.0
20260507084153 21 110 6.4 0.0 0.00 0.00 0.00 95 1015.0
20260507083151 21 110 6.4 0.0 0.00 0.00 0.00 95 1015.0
20260507082149 21 110 6.4 0.0 0.00 0.00 0.00 95 1015.0
20260507081147 21 110 6.4 0.0 0.00 0.00 0.00 95 1015.0
20260507080145 21 110 6.4 0.0 0.00 0.00 0.00 95 1015.0
20260507075144 21 110 6.4 0.0 0.00 0.00 0.00 95 1015.0
20260507074143 21 110 6.4 0.0 0.00 0.00 0.00 95 1015.0
20260507073142 21 110 6.4 0.0 0.00 0.00 0.00 95 1016.0
20260507072141 21 110 6.4 0.0 0.00 0.00 0.00 95 1016.0
20260507071140 22 120 6.4 0.0 0.00 0.00 0.00 96 1016.0
20260507070139 22 120 6.4 0.0 0.00 0.00 0.00 96 1016.0
20260507065138 22 120 6.4 0.0 0.00 0.00 0.00 94 1016.0
20260507064137 22 120 6.4 0.0 0.00 0.00 0.00 94 1016.0
20260507063136 22 120 6.4 0.0 0.00 0.00 0.00 94 1016.0
20260507062134 22 120 6.4 0.0 0.00 0.00 0.00 94 1016.0
20260507061133 22 120 6.4 0.0 0.00 0.00 0.00 94 1016.0
20260507060132 22 130 6.4 0.0 0.00 0.00 0.00 94 1016.0
20260507055131 22 130 6.4 0.0 0.00 0.00 0.00 94 1016.0
20260507054130 22 130 6.4 0.0 0.00 0.00 0.00 94 1016.0
20260507053127 22 130 6.4 0.0 0.00 0.00 0.00 94 1016.0
20260507052125 22 130 6.4 0.0 0.00 0.00 0.00 94 1017.0
20260507051123 22 100 6.4 0.0 0.00 0.00 0.00 94 1017.0
20260507050122 22 100 6.4 0.0 0.00 0.00 0.00 94 1017.0
20260507045121 22 100 6.4 0.0 0.00 0.00 0.00 94 1017.0
20260507044119 23 100 6.4 0.0 0.00 0.00 0.00 94 1017.0
20260507043118 23 100 6.4 0.0 0.00 0.00 0.00 83 1017.0
20260507042116 23 100 6.4 0.0 0.00 0.00 0.00 83 1017.0
20260507041115 23 110 6.4 0.0 0.00 0.00 0.00 83 1017.0
20260507040113 23 110 6.4 0.0 0.00 0.00 0.00 83 1017.0
20260507035112 23 110 6.4 0.0 0.00 0.00 0.00 83 1017.0
20260507034111 23 110 6.4 0.0 0.00 0.00 0.00 83 1017.0
20260507033108 23 110 6.4 0.0 0.00 0.00 0.00 83 1017.0
20260507032107 23 110 6.4 0.0 0.00 0.00 0.00 83 1017.0
20260507031106 23 110 6.4 0.0 0.00 0.00 0.00 83 1017.0
20260507025101 25 70 8.0 0.0 0.00 0.00 0.00 78 1017.0
20260507024059 25 70 8.0 0.0 0.00 0.00 0.00 78 1017.0
20260507023057 25 70 8.0 0.0 0.00 0.00 0.00 78 1017.0
20260507022055 25 70 8.0 0.0 0.00 0.00 0.00 78 1017.0
20260507021053 25 70 8.0 0.0 0.00 0.00 0.00 78 1017.0
20260507020051 26 60 9.7 0.0 0.00 0.00 0.00 65 1017.0
20260507015049 26 60 9.7 0.0 0.00 0.00 0.00 65 1017.0
20260507014048 26 60 9.7 0.0 0.00 0.00 0.00 65 1017.0
20260507013045 26 60 9.7 0.0 0.00 0.00 0.00 65 1017.0
20260507012043 26 60 9.7 0.0 0.00 0.00 0.00 65 1016.0
20260507011042 26 60 9.7 0.0 0.00 0.00 0.00 65 1016.0
20260507010041 27 60 14.5 0.0 0.00 0.00 0.00 61 1016.0
20260507005039 27 60 14.5 0.0 0.00 0.00 0.00 61 1016.0
20260507004038 27 60 14.5 0.0 0.00 0.00 0.00 61 1016.0
20260507003037 27 60 14.5 0.0 0.00 0.00 0.00 61 1016.0
20260507002036 27 60 14.5 0.0 0.00 0.00 0.00 61 1016.0
20260507001035 28 90 12.9 0.0 0.00 0.00 0.00 61 1016.0
20260507000033 28 90 12.9 0.0 0.00 0.00 0.00 61 1016.0
20260506235031 28 90 12.9 0.0 0.00 0.00 0.00 61 1016.0
20260506234030 28 90 12.9 0.0 0.00 0.00 0.00 61 1016.0
20260506233027 27 90 12.9 0.0 0.00 0.00 0.00 61 1016.0
20260506232026 28 90 12.9 0.0 0.00 0.00 0.00 61 1015.0
20260506231025 28 90 12.9 0.0 0.00 0.00 0.00 61 1015.0
20260506230023 31 100 16.1 0.0 0.00 0.00 0.00 55 1015.0
20260506225022 31 100 16.1 0.0 0.00 0.00 0.00 55 1015.0
20260506224020 31 100 16.1 0.0 0.00 0.00 0.00 55 1015.0
20260506223019 31 100 20.9 0.0 0.00 0.00 0.00 53 1015.0
20260506222017 31 100 20.9 0.0 0.00 0.00 0.00 53 1014.0
20260506221015 31 100 20.9 0.0 0.00 0.00 0.00 52 1014.0
20260506220014 31 100 20.9 0.0 0.00 0.00 0.00 51 1014.0
20260506215013 31 100 20.9 0.0 0.00 0.00 0.00 51 1014.0
20260506214011 31 100 20.9 0.0 0.00 0.00 0.00 51 1014.0
20260506213010 31 100 20.9 0.0 0.00 0.00 0.00 51 1014.0
20260506212009 31 100 20.9 0.0 0.00 0.00 0.00 51 1014.0
20260506211007 31 100 20.9 0.0 0.00 0.00 0.00 51 1014.0
20260506210005 31 100 20.9 0.0 0.00 0.00 0.00 51 1014.0
20260506205004 31 100 20.9 0.0 0.00 0.00 0.00 51 1014.0
20260506204002 31 100 20.9 0.0 0.00 0.00 0.00 51 1014.0
20260506203001 31 100 20.9 0.0 0.00 0.00 0.00 51 1014.0
20260506202000 31 100 20.9 0.0 0.00 0.00 0.00 51 1014.0
20260506200958 31 100 20.9 0.0 0.00 0.00 0.00 51 1014.0
20260506195957 31 100 20.9 0.0 0.00 0.00 0.00 50 1014.0
20260506194956 31 100 20.9 0.0 0.00 0.00 0.00 50 1014.0
20260506193954 31 100 20.9 0.0 0.00 0.00 0.00 50 1014.0
20260506192953 31 100 20.9 0.0 0.00 0.00 0.00 50 1015.0
20260506191951 31 100 20.9 0.0 0.00 0.00 0.00 50 1015.0
20260506190950 31 100 20.9 0.0 0.00 0.00 0.00 50 1015.0
20260506185949 31 100 20.9 0.0 0.00 0.00 0.00 50 1015.0
20260506184948 31 100 20.9 0.0 0.00 0.00 0.00 50 1015.0
20260506183946 31 100 20.9 0.0 0.00 0.00 0.00 50 1015.0
20260506182945 31 100 20.9 0.0 0.00 0.00 0.00 50 1015.0
20260506181944 31 100 20.9 0.0 0.00 0.00 0.00 51 1015.0
20260506180942 31 100 20.9 0.0 0.00 0.00 0.00 52 1015.0
20260506175941 30 100 20.9 0.0 0.00 0.00 0.00 53 1015.0
20260506174939 30 100 20.9 0.0 0.00 0.00 0.00 53 1015.0
20260506173938 30 100 20.9 0.0 0.00 0.00 0.00 53 1015.0
20260506172937 30 100 20.9 0.0 0.00 0.00 0.00 54 1016.0
20260506171935 30 100 20.9 0.0 0.00 0.00 0.00 55 1016.0
20260506170934 30 100 20.9 0.0 0.00 0.00 0.00 56 1016.0
20260506165933 29 100 17.7 0.0 0.00 0.00 0.00 59 1016.0
20260506164932 29 100 17.7 0.0 0.00 0.00 0.00 59 1016.0
20260506163930 29 100 17.7 0.0 0.00 0.00 0.00 59 1016.0
20260506162929 29 100 17.7 0.0 0.00 0.00 0.00 59 1017.0
20260506161927 29 100 17.7 0.0 0.00 0.00 0.00 59 1017.0
20260506160926 28 100 17.7 0.0 0.00 0.00 0.00 59 1017.0
20260506155924 28 120 17.7 40.2 0.00 0.00 0.00 59 1017.0
20260506154923 28 120 17.7 40.2 0.00 0.00 0.00 59 1017.0
20260506153921 28 120 17.7 40.2 0.00 0.00 0.00 59 1017.0
20260506152920 28 120 17.7 40.2 0.00 0.00 0.00 60 1017.0
20260506151918 28 120 17.7 40.2 0.00 0.00 0.00 61 1017.0
20260506150917 28 120 17.7 40.2 0.00 0.00 0.00 62 1017.0
20260506145916 28 120 14.5 0.0 0.00 0.00 0.00 65 1017.0
20260506144914 28 120 14.5 0.0 0.00 0.00 0.00 65 1017.0
20260506143913 28 120 14.5 0.0 0.00 0.00 0.00 65 1017.0
20260506142911 28 120 14.5 0.0 0.00 0.00 0.00 65 1017.0
20260506141910 28 120 14.5 0.0 0.00 0.00 0.00 65 1017.0
20260506140908 28 120 14.5 0.0 0.00 0.00 0.00 65 1018.0
20260506135907 23 100 6.4 0.0 0.00 0.00 0.00 83 1018.0
20260506134905 23 100 6.4 0.0 0.00 0.00 0.00 83 1018.0
20260506133904 23 100 6.4 0.0 0.00 0.00 0.00 83 1018.0
20260506132902 23 100 6.4 0.0 0.00 0.00 0.00 83 1018.0
20260506131901 23 100 6.4 0.0 0.00 0.00 0.00 83 1018.0
20260506130900 23 100 6.4 0.0 0.00 0.00 0.00 83 1018.0